Year,Month,Day,Hour,Minute,Value (Times are PST for temperature in C)
2015,05,29,00,00,16.90
2015,05,29,00,01,16.90
2015,05,29,00,02,16.90
2015,05,29,00,03,16.90
2015,05,29,00,04,16.90
2015,05,29,00,05,16.90
2015,05,29,00,06,16.90
2015,05,29,00,07,16.90
2015,05,29,00,08,16.80
2015,05,29,00,09,16.80
2015,05,29,00,10,16.80
2015,05,29,00,11,16.80
2015,05,29,00,12,16.80
2015,05,29,00,13,16.80
2015,05,29,00,14,16.80
2015,05,29,00,15,16.80
2015,05,29,00,16,16.80
2015,05,29,00,17,16.80
2015,05,29,00,18,16.80
2015,05,29,00,19,16.80
2015,05,29,00,20,16.80
2015,05,29,00,21,16.80
2015,05,29,00,22,16.80
2015,05,29,00,23,16.80
2015,05,29,00,24,16.80
2015,05,29,00,25,16.70
2015,05,29,00,26,16.70
2015,05,29,00,27,16.70
2015,05,29,00,28,16.70
2015,05,29,00,29,16.60
2015,05,29,00,30,16.60
2015,05,29,00,31,16.60
2015,05,29,00,32,16.50
2015,05,29,00,33,16.50
2015,05,29,00,34,16.40
2015,05,29,00,35,16.40
2015,05,29,00,36,16.30
2015,05,29,00,37,16.30
2015,05,29,00,38,16.20
2015,05,29,00,39,16.20
2015,05,29,00,40,16.20
2015,05,29,00,41,16.10
2015,05,29,00,42,16.10
2015,05,29,00,43,16.10
2015,05,29,00,44,16.10
2015,05,29,00,45,16.10
2015,05,29,00,46,16.00
2015,05,29,00,47,16.00
2015,05,29,00,48,16.00
2015,05,29,00,49,16.00
2015,05,29,00,50,16.00
2015,05,29,00,51,16.00
2015,05,29,00,52,16.00
2015,05,29,00,53,16.00
2015,05,29,00,54,16.00
2015,05,29,00,55,15.90
2015,05,29,00,56,15.90
2015,05,29,00,57,15.90
2015,05,29,00,58,15.90
2015,05,29,00,59,15.90
2015,05,29,01,00,15.90
2015,05,29,01,01,15.90
2015,05,29,01,02,15.90
2015,05,29,01,03,15.90
2015,05,29,01,04,15.90
2015,05,29,01,05,15.90
2015,05,29,01,06,15.90
2015,05,29,01,07,15.80
2015,05,29,01,08,15.80
2015,05,29,01,09,15.80
2015,05,29,01,10,15.80
2015,05,29,01,11,15.80
2015,05,29,01,12,15.70
2015,05,29,01,13,15.70
2015,05,29,01,14,15.70
2015,05,29,01,15,15.70
2015,05,29,01,16,15.70
2015,05,29,01,17,15.70
2015,05,29,01,18,15.70
2015,05,29,01,19,15.70
2015,05,29,01,20,15.60
2015,05,29,01,21,15.60
2015,05,29,01,22,15.60
2015,05,29,01,23,15.60
2015,05,29,01,24,15.60
2015,05,29,01,25,15.60
2015,05,29,01,26,15.50
2015,05,29,01,27,15.50
2015,05,29,01,28,15.50
2015,05,29,01,29,15.50
2015,05,29,01,30,15.40
2015,05,29,01,31,15.40
2015,05,29,01,32,15.40
2015,05,29,01,33,15.40
2015,05,29,01,34,15.30
2015,05,29,01,35,15.30
2015,05,29,01,36,15.30
2015,05,29,01,37,15.30
2015,05,29,01,38,15.30
2015,05,29,01,39,15.30
2015,05,29,01,40,15.30
2015,05,29,01,41,15.20
2015,05,29,01,42,15.20
2015,05,29,01,43,15.20
2015,05,29,01,44,15.20
2015,05,29,01,45,15.20
2015,05,29,01,46,15.20
2015,05,29,01,47,15.20
2015,05,29,01,48,15.20
2015,05,29,01,49,15.20
2015,05,29,01,50,15.20
2015,05,29,01,51,15.20
2015,05,29,01,52,15.20
2015,05,29,01,53,15.20
2015,05,29,01,54,15.20
2015,05,29,01,55,15.20
2015,05,29,01,56,15.20
2015,05,29,01,57,15.20
2015,05,29,01,58,15.20
2015,05,29,01,59,15.20
2015,05,29,02,00,15.20
2015,05,29,02,01,15.20
2015,05,29,02,02,15.20
2015,05,29,02,03,15.20
2015,05,29,02,04,15.20
2015,05,29,02,05,15.20
2015,05,29,02,06,15.20
2015,05,29,02,07,15.20
2015,05,29,02,08,15.20
2015,05,29,02,09,15.20
2015,05,29,02,10,15.20
2015,05,29,02,11,15.20
2015,05,29,02,12,15.20
2015,05,29,02,13,15.20
2015,05,29,02,14,15.20
2015,05,29,02,15,15.20
2015,05,29,02,16,15.20
2015,05,29,02,17,15.20
2015,05,29,02,18,15.20
2015,05,29,02,19,15.20
2015,05,29,02,20,15.20
2015,05,29,02,21,15.20
2015,05,29,02,22,15.20
2015,05,29,02,23,15.20
2015,05,29,02,24,15.20
2015,05,29,02,25,15.10
2015,05,29,02,26,15.10
2015,05,29,02,27,15.10
2015,05,29,02,28,15.20
2015,05,29,02,29,15.20
2015,05,29,02,30,15.20
2015,05,29,02,31,15.20
2015,05,29,02,32,15.20
2015,05,29,02,33,15.20
2015,05,29,02,34,15.20
2015,05,29,02,35,15.20
2015,05,29,02,36,15.20
2015,05,29,02,37,15.10
2015,05,29,02,38,15.20
2015,05,29,02,39,15.10
2015,05,29,02,40,15.10
2015,05,29,02,41,15.10
2015,05,29,02,42,15.10
2015,05,29,02,43,15.10
2015,05,29,02,44,15.10
2015,05,29,02,45,15.10
2015,05,29,02,46,15.10
2015,05,29,02,47,15.10
2015,05,29,02,48,15.10
2015,05,29,02,49,15.10
2015,05,29,02,50,15.10
2015,05,29,02,51,15.10
2015,05,29,02,52,15.10
2015,05,29,02,53,15.10
2015,05,29,02,54,15.10
2015,05,29,02,55,15.00
2015,05,29,02,56,15.00
2015,05,29,02,57,15.00
2015,05,29,02,58,15.00
2015,05,29,02,59,15.00
2015,05,29,03,00,15.00
2015,05,29,03,01,15.00
2015,05,29,03,02,15.00
2015,05,29,03,03,15.00
2015,05,29,03,04,15.00
2015,05,29,03,05,15.00
2015,05,29,03,06,15.00
2015,05,29,03,07,15.00
2015,05,29,03,08,15.00
2015,05,29,03,09,15.00
2015,05,29,03,10,15.00
2015,05,29,03,11,15.00
2015,05,29,03,12,15.00
2015,05,29,03,13,15.00
2015,05,29,03,14,14.90
2015,05,29,03,15,14.90
2015,05,29,03,16,14.90
2015,05,29,03,17,14.90
2015,05,29,03,18,14.90
2015,05,29,03,19,14.90
2015,05,29,03,20,14.90
2015,05,29,03,21,14.90
2015,05,29,03,22,14.80
2015,05,29,03,23,14.80
2015,05,29,03,24,14.80
2015,05,29,03,25,14.80
2015,05,29,03,26,14.80
2015,05,29,03,27,14.80
2015,05,29,03,28,14.80
2015,05,29,03,29,14.80
2015,05,29,03,30,14.70
2015,05,29,03,31,14.70
2015,05,29,03,32,14.70
2015,05,29,03,33,14.70
2015,05,29,03,34,14.70
2015,05,29,03,35,14.70
2015,05,29,03,36,14.70
2015,05,29,03,37,14.70
2015,05,29,03,38,14.70
2015,05,29,03,39,14.70
2015,05,29,03,40,14.70
2015,05,29,03,41,14.60
2015,05,29,03,42,14.60
2015,05,29,03,43,14.60
2015,05,29,03,44,14.60
2015,05,29,03,45,14.60
2015,05,29,03,46,14.60
2015,05,29,03,47,14.60
2015,05,29,03,48,14.60
2015,05,29,03,49,14.60
2015,05,29,03,50,14.60
2015,05,29,03,51,14.60
2015,05,29,03,52,14.50
2015,05,29,03,53,14.50
2015,05,29,03,54,14.50
2015,05,29,03,55,14.50
2015,05,29,03,56,14.50
2015,05,29,03,57,14.40
2015,05,29,03,58,14.40
2015,05,29,03,59,14.40
2015,05,29,04,00,14.40
2015,05,29,04,01,14.40
2015,05,29,04,02,14.30
2015,05,29,04,03,14.30
2015,05,29,04,04,14.30
2015,05,29,04,05,14.30
2015,05,29,04,06,14.30
2015,05,29,04,07,14.20
2015,05,29,04,08,14.20
2015,05,29,04,09,14.20
2015,05,29,04,10,14.20
2015,05,29,04,11,14.10
2015,05,29,04,12,14.10
2015,05,29,04,13,14.10
2015,05,29,04,14,14.10
2015,05,29,04,15,14.00
2015,05,29,04,16,14.00
2015,05,29,04,17,13.90
2015,05,29,04,18,13.90
2015,05,29,04,19,13.90
2015,05,29,04,20,13.80
2015,05,29,04,21,13.80
2015,05,29,04,22,13.70
2015,05,29,04,23,13.70
2015,05,29,04,24,13.60
2015,05,29,04,25,13.60
2015,05,29,04,26,13.60
2015,05,29,04,27,13.50
2015,05,29,04,28,13.50
2015,05,29,04,29,13.50
2015,05,29,04,30,13.40
2015,05,29,04,31,13.40
2015,05,29,04,32,13.40
2015,05,29,04,33,13.40
2015,05,29,04,34,13.40
2015,05,29,04,35,13.40
2015,05,29,04,36,13.40
2015,05,29,04,37,13.30
2015,05,29,04,38,13.30
2015,05,29,04,39,13.30
2015,05,29,04,40,13.30
2015,05,29,04,41,13.30
2015,05,29,04,42,13.30
2015,05,29,04,43,13.30
2015,05,29,04,44,13.30
2015,05,29,04,45,13.30
2015,05,29,04,46,13.20
2015,05,29,04,47,13.20
2015,05,29,04,48,13.20
2015,05,29,04,49,13.20
2015,05,29,04,50,13.10
2015,05,29,04,51,13.10
2015,05,29,04,52,13.10
2015,05,29,04,53,13.10
2015,05,29,04,54,13.00
2015,05,29,04,55,13.00
2015,05,29,04,56,12.90
2015,05,29,04,57,12.90
2015,05,29,04,58,12.90
2015,05,29,04,59,12.90
2015,05,29,05,00,12.90
2015,05,29,05,01,12.90
2015,05,29,05,02,12.80
2015,05,29,05,03,12.80
2015,05,29,05,04,12.80
2015,05,29,05,05,12.80
2015,05,29,05,06,12.90
2015,05,29,05,07,12.90
2015,05,29,05,08,12.90
2015,05,29,05,09,12.90
2015,05,29,05,10,12.90
2015,05,29,05,11,12.90
2015,05,29,05,12,12.90
2015,05,29,05,13,12.90
2015,05,29,05,14,12.90
2015,05,29,05,15,13.00
2015,05,29,05,16,13.00
2015,05,29,05,17,13.00
2015,05,29,05,18,13.00
2015,05,29,05,19,13.10
2015,05,29,05,20,13.10
2015,05,29,05,21,13.10
2015,05,29,05,22,13.10
2015,05,29,05,23,13.10
2015,05,29,05,24,13.10
2015,05,29,05,25,13.10
2015,05,29,05,26,13.10
2015,05,29,05,27,13.10
2015,05,29,05,28,13.10
2015,05,29,05,29,13.10
2015,05,29,05,30,13.10
2015,05,29,05,31,13.10
2015,05,29,05,32,13.10
2015,05,29,05,33,13.20
2015,05,29,05,34,13.20
2015,05,29,05,35,13.20
2015,05,29,05,36,13.20
2015,05,29,05,37,13.20
2015,05,29,05,38,13.20
2015,05,29,05,39,13.20
2015,05,29,05,40,13.20
2015,05,29,05,41,13.20
2015,05,29,05,42,13.20
2015,05,29,05,43,13.20
2015,05,29,05,44,13.20
2015,05,29,05,45,13.20
2015,05,29,05,46,13.20
2015,05,29,05,47,13.10
2015,05,29,05,48,13.10
2015,05,29,05,49,13.10
2015,05,29,05,50,13.10
2015,05,29,05,51,13.10
2015,05,29,05,52,13.10
2015,05,29,05,53,13.10
2015,05,29,05,54,13.10
2015,05,29,05,55,13.10
2015,05,29,05,56,13.10
2015,05,29,05,57,13.10
2015,05,29,05,58,13.10
2015,05,29,05,59,13.10
2015,05,29,06,00,13.10
2015,05,29,06,01,13.10
2015,05,29,06,02,13.10
2015,05,29,06,03,13.10
2015,05,29,06,04,13.10
2015,05,29,06,05,13.10
2015,05,29,06,06,13.10
2015,05,29,06,07,13.10
2015,05,29,06,08,13.10
2015,05,29,06,09,13.10
2015,05,29,06,10,13.10
2015,05,29,06,11,13.10
2015,05,29,06,12,13.10
2015,05,29,06,13,13.10
2015,05,29,06,14,13.10
2015,05,29,06,15,13.10
2015,05,29,06,16,13.10
2015,05,29,06,17,13.10
2015,05,29,06,18,13.10
2015,05,29,06,19,13.10
2015,05,29,06,20,13.20
2015,05,29,06,21,13.20
2015,05,29,06,22,13.20
2015,05,29,06,23,13.20
2015,05,29,06,24,13.20
2015,05,29,06,25,13.20
2015,05,29,06,26,13.20
2015,05,29,06,27,13.30
2015,05,29,06,28,13.30
2015,05,29,06,29,13.30
2015,05,29,06,30,13.30
2015,05,29,06,31,13.30
2015,05,29,06,32,13.40
2015,05,29,06,33,13.40
2015,05,29,06,34,13.40
2015,05,29,06,35,13.40
2015,05,29,06,36,13.50
2015,05,29,06,37,13.50
2015,05,29,06,38,13.50
2015,05,29,06,39,13.60
2015,05,29,06,40,13.60
2015,05,29,06,41,13.60
2015,05,29,06,42,13.70
2015,05,29,06,43,13.70
2015,05,29,06,44,13.70
2015,05,29,06,45,13.70
2015,05,29,06,46,13.70
2015,05,29,06,47,13.80
2015,05,29,06,48,13.80
2015,05,29,06,49,13.80
2015,05,29,06,50,13.80
2015,05,29,06,51,13.80
2015,05,29,06,52,13.80
2015,05,29,06,53,13.80
2015,05,29,06,54,13.90
2015,05,29,06,55,13.90
2015,05,29,06,56,13.90
2015,05,29,06,57,13.90
2015,05,29,06,58,13.90
2015,05,29,06,59,13.90
2015,05,29,07,00,13.90
2015,05,29,07,01,14.00
2015,05,29,07,02,14.00
2015,05,29,07,03,14.00
2015,05,29,07,04,14.10
2015,05,29,07,05,14.10
2015,05,29,07,06,14.10
2015,05,29,07,07,14.10
2015,05,29,07,08,14.10
2015,05,29,07,09,14.20
2015,05,29,07,10,14.20
2015,05,29,07,11,14.20
2015,05,29,07,12,14.30
2015,05,29,07,13,14.30
2015,05,29,07,14,14.30
2015,05,29,07,15,14.30
2015,05,29,07,16,14.40
2015,05,29,07,17,14.40
2015,05,29,07,18,14.40
2015,05,29,07,19,14.40
2015,05,29,07,20,14.50
2015,05,29,07,21,14.50
2015,05,29,07,22,14.50
2015,05,29,07,23,14.50
2015,05,29,07,24,14.60
2015,05,29,07,25,14.60
2015,05,29,07,26,14.60
2015,05,29,07,27,14.60
2015,05,29,07,28,14.60
2015,05,29,07,29,14.70
2015,05,29,07,30,14.70
2015,05,29,07,31,14.70
2015,05,29,07,32,14.70
2015,05,29,07,33,14.70
2015,05,29,07,34,14.70
2015,05,29,07,35,14.80
2015,05,29,07,36,14.80
2015,05,29,07,37,14.80
2015,05,29,07,38,14.80
2015,05,29,07,39,14.80
2015,05,29,07,40,14.90
2015,05,29,07,41,14.90
2015,05,29,07,42,14.90
2015,05,29,07,43,15.00
2015,05,29,07,44,15.00
2015,05,29,07,45,15.00
2015,05,29,07,46,15.00
2015,05,29,07,47,15.00
2015,05,29,07,48,15.00
2015,05,29,07,49,15.00
2015,05,29,07,50,15.10
2015,05,29,07,51,15.20
2015,05,29,07,52,15.20
2015,05,29,07,53,15.30
2015,05,29,07,54,15.40
2015,05,29,07,55,15.40
2015,05,29,07,56,15.50
2015,05,29,07,57,15.50
2015,05,29,07,58,15.60
2015,05,29,07,59,15.70
2015,05,29,08,00,15.80
2015,05,29,08,01,15.80
2015,05,29,08,02,15.80
2015,05,29,08,03,15.90
2015,05,29,08,04,15.90
2015,05,29,08,05,15.90
2015,05,29,08,06,15.90
2015,05,29,08,07,16.00
2015,05,29,08,08,16.00
2015,05,29,08,09,16.00
2015,05,29,08,10,16.00
2015,05,29,08,11,16.00
2015,05,29,08,12,16.10
2015,05,29,08,13,16.10
2015,05,29,08,14,16.10
2015,05,29,08,15,16.10
2015,05,29,08,16,16.10
2015,05,29,08,17,16.10
2015,05,29,08,18,16.20
2015,05,29,08,19,16.20
2015,05,29,08,20,16.30
2015,05,29,08,21,16.30
2015,05,29,08,22,16.40
2015,05,29,08,23,16.50
2015,05,29,08,24,16.60
2015,05,29,08,25,16.70
2015,05,29,08,26,16.70
2015,05,29,08,27,16.80
2015,05,29,08,28,16.80
2015,05,29,08,29,16.80
2015,05,29,08,30,16.80
2015,05,29,08,31,16.80
2015,05,29,08,32,16.80
2015,05,29,08,33,16.80
2015,05,29,08,34,16.80
2015,05,29,08,35,16.80
2015,05,29,08,36,16.80
2015,05,29,08,37,16.80
2015,05,29,08,38,16.90
2015,05,29,08,39,16.90
2015,05,29,08,40,16.80
2015,05,29,08,41,16.80
2015,05,29,08,42,16.80
2015,05,29,08,43,16.80
2015,05,29,08,44,16.80
2015,05,29,08,45,16.80
2015,05,29,08,46,16.90
2015,05,29,08,47,16.90
2015,05,29,08,48,16.90
2015,05,29,08,49,17.00
2015,05,29,08,50,17.00
2015,05,29,08,51,17.10
2015,05,29,08,52,17.10
2015,05,29,08,53,17.20
2015,05,29,08,54,17.20
2015,05,29,08,55,17.30
2015,05,29,08,56,17.30
2015,05,29,08,57,17.30
2015,05,29,08,58,17.40
2015,05,29,08,59,17.40
2015,05,29,09,00,17.30
2015,05,29,09,01,17.30
2015,05,29,09,02,17.30
2015,05,29,09,03,17.30
2015,05,29,09,04,17.40
2015,05,29,09,05,17.40
2015,05,29,09,06,17.40
2015,05,29,09,07,17.50
2015,05,29,09,08,17.40
2015,05,29,09,09,17.40
2015,05,29,09,10,17.40
2015,05,29,09,11,17.40
2015,05,29,09,12,17.40
2015,05,29,09,13,17.40
2015,05,29,09,14,17.50
2015,05,29,09,15,17.50
2015,05,29,09,16,17.60
2015,05,29,09,17,17.70
2015,05,29,09,18,17.70
2015,05,29,09,19,17.80
2015,05,29,09,20,17.80
2015,05,29,09,21,17.90
2015,05,29,09,22,17.90
2015,05,29,09,23,18.00
2015,05,29,09,24,18.10
2015,05,29,09,25,18.20
2015,05,29,09,26,18.30
2015,05,29,09,27,18.40
2015,05,29,09,28,18.50
2015,05,29,09,29,18.60
2015,05,29,09,30,18.70
2015,05,29,09,31,18.80
2015,05,29,09,32,18.90
2015,05,29,09,33,19.10
2015,05,29,09,34,19.10
2015,05,29,09,35,19.20
2015,05,29,09,36,19.30
2015,05,29,09,37,19.30
2015,05,29,09,38,19.40
2015,05,29,09,39,19.50
2015,05,29,09,40,19.50
2015,05,29,09,41,19.50
2015,05,29,09,42,19.60
2015,05,29,09,43,19.60
2015,05,29,09,44,19.60
2015,05,29,09,45,19.60
2015,05,29,09,46,19.60
2015,05,29,09,47,19.70
2015,05,29,09,48,19.70
2015,05,29,09,49,19.70
2015,05,29,09,50,19.70
2015,05,29,09,51,19.80
2015,05,29,09,52,19.70
2015,05,29,09,53,19.60
2015,05,29,09,54,19.50
2015,05,29,09,55,19.40
2015,05,29,09,56,19.30
2015,05,29,09,57,19.30
2015,05,29,09,58,19.30
2015,05,29,09,59,19.30
2015,05,29,10,00,19.30
2015,05,29,10,01,19.30
2015,05,29,10,02,19.30
2015,05,29,10,03,19.30
2015,05,29,10,04,19.30
2015,05,29,10,05,19.30
2015,05,29,10,06,19.20
2015,05,29,10,07,19.20
2015,05,29,10,08,19.30
2015,05,29,10,09,19.30
2015,05,29,10,10,19.30
2015,05,29,10,11,19.30
2015,05,29,10,12,19.30
2015,05,29,10,13,19.20
2015,05,29,10,14,19.10
2015,05,29,10,15,19.10
2015,05,29,10,16,19.10
2015,05,29,10,17,19.10
2015,05,29,10,18,19.10
2015,05,29,10,19,19.20
2015,05,29,10,20,19.20
2015,05,29,10,21,19.20
2015,05,29,10,22,19.30
2015,05,29,10,23,19.30
2015,05,29,10,24,19.30
2015,05,29,10,25,19.30
2015,05,29,10,26,19.30
2015,05,29,10,27,19.30
2015,05,29,10,28,19.30
2015,05,29,10,29,19.30
2015,05,29,10,30,19.20
2015,05,29,10,31,19.30
2015,05,29,10,32,19.30
2015,05,29,10,33,19.30
2015,05,29,10,34,19.30
2015,05,29,10,35,19.20
2015,05,29,10,36,19.10
2015,05,29,10,37,19.10
2015,05,29,10,38,19.00
2015,05,29,10,39,19.00
2015,05,29,10,40,19.00
2015,05,29,10,41,19.00
2015,05,29,10,42,19.00
2015,05,29,10,43,19.00
2015,05,29,10,44,19.10
2015,05,29,10,45,19.10
2015,05,29,10,46,19.10
2015,05,29,10,47,19.10
2015,05,29,10,48,19.10
2015,05,29,10,49,19.10
2015,05,29,10,50,19.10
2015,05,29,10,51,19.00
2015,05,29,10,52,19.00
2015,05,29,10,53,19.00
2015,05,29,10,54,19.00
2015,05,29,10,55,19.00
2015,05,29,10,56,18.90
2015,05,29,10,57,18.90
2015,05,29,10,58,19.00
2015,05,29,10,59,19.10
2015,05,29,11,00,19.10
2015,05,29,11,01,19.20
2015,05,29,11,02,19.30
2015,05,29,11,03,19.40
2015,05,29,11,04,19.40
2015,05,29,11,05,19.40
2015,05,29,11,06,19.50
2015,05,29,11,07,19.50
2015,05,29,11,08,19.60
2015,05,29,11,09,19.60
2015,05,29,11,10,19.70
2015,05,29,11,11,19.70
2015,05,29,11,12,19.70
2015,05,29,11,13,19.70
2015,05,29,11,14,19.80
2015,05,29,11,15,19.80
2015,05,29,11,16,19.80
2015,05,29,11,17,19.80
2015,05,29,11,18,19.80
2015,05,29,11,19,19.70
2015,05,29,11,20,19.70
2015,05,29,11,21,19.70
2015,05,29,11,22,19.70
2015,05,29,11,23,19.70
2015,05,29,11,24,19.60
2015,05,29,11,25,19.60
2015,05,29,11,26,19.60
2015,05,29,11,27,19.50
2015,05,29,11,28,19.50
2015,05,29,11,29,19.40
2015,05,29,11,30,19.40
2015,05,29,11,31,19.30
2015,05,29,11,32,19.30
2015,05,29,11,33,19.30
2015,05,29,11,34,19.30
2015,05,29,11,35,19.30
2015,05,29,11,36,19.30
2015,05,29,11,37,19.30
2015,05,29,11,38,19.20
2015,05,29,11,39,19.20
2015,05,29,11,40,19.10
2015,05,29,11,41,19.20
2015,05,29,11,42,19.20
2015,05,29,11,43,19.30
2015,05,29,11,44,19.20
2015,05,29,11,45,19.30
2015,05,29,11,46,19.30
2015,05,29,11,47,19.30
2015,05,29,11,48,19.30
2015,05,29,11,49,19.30
2015,05,29,11,50,19.30
2015,05,29,11,51,19.20
2015,05,29,11,52,19.20
2015,05,29,11,53,19.20
2015,05,29,11,54,19.10
2015,05,29,11,55,19.10
2015,05,29,11,56,19.10
2015,05,29,11,57,19.00
2015,05,29,11,58,18.90
2015,05,29,11,59,18.90
2015,05,29,12,00,18.90
2015,05,29,12,01,18.80
2015,05,29,12,02,18.80
2015,05,29,12,03,18.80
2015,05,29,12,04,18.80
2015,05,29,12,05,18.90
2015,05,29,12,06,19.00
2015,05,29,12,07,19.10
2015,05,29,12,08,19.30
2015,05,29,12,09,19.40
2015,05,29,12,10,19.40
2015,05,29,12,11,19.50
2015,05,29,12,12,19.50
2015,05,29,12,13,19.50
2015,05,29,12,14,19.50
2015,05,29,12,15,19.50
2015,05,29,12,16,19.60
2015,05,29,12,17,19.60
2015,05,29,12,18,19.70
2015,05,29,12,19,19.70
2015,05,29,12,20,19.80
2015,05,29,12,21,19.90
2015,05,29,12,22,19.90
2015,05,29,12,23,19.90
2015,05,29,12,24,19.90
2015,05,29,12,25,19.90
2015,05,29,12,26,19.90
2015,05,29,12,27,19.80
2015,05,29,12,28,19.80
2015,05,29,12,29,19.80
2015,05,29,12,30,19.80
2015,05,29,12,31,19.80
2015,05,29,12,32,19.90
2015,05,29,12,33,20.00
2015,05,29,12,34,20.00
2015,05,29,12,35,20.20
2015,05,29,12,36,20.30
2015,05,29,12,37,20.40
2015,05,29,12,38,20.50
2015,05,29,12,39,20.70
2015,05,29,12,40,20.80
2015,05,29,12,41,20.90
2015,05,29,12,42,20.90
2015,05,29,12,43,21.00
2015,05,29,12,44,21.10
2015,05,29,12,45,21.20
2015,05,29,12,46,21.30
2015,05,29,12,47,21.40
2015,05,29,12,48,21.50
2015,05,29,12,49,21.60
2015,05,29,12,50,21.60
2015,05,29,12,51,21.70
2015,05,29,12,52,21.80
2015,05,29,12,53,21.90
2015,05,29,12,54,21.90
2015,05,29,12,55,22.00
2015,05,29,12,56,22.10
2015,05,29,12,57,22.10
2015,05,29,12,58,22.10
2015,05,29,12,59,22.20
2015,05,29,13,00,22.20
2015,05,29,13,01,22.20
2015,05,29,13,02,22.30
2015,05,29,13,03,22.50
2015,05,29,13,04,22.50
2015,05,29,13,05,22.50
2015,05,29,13,06,22.50
2015,05,29,13,07,22.30
2015,05,29,13,08,22.30
2015,05,29,13,09,22.30
2015,05,29,13,10,22.50
2015,05,29,13,11,22.60
2015,05,29,13,12,22.70
2015,05,29,13,13,22.80
2015,05,29,13,14,22.90
2015,05,29,13,15,23.00
2015,05,29,13,16,23.20
2015,05,29,13,17,23.30
2015,05,29,13,18,23.40
2015,05,29,13,19,23.40
2015,05,29,13,20,23.50
2015,05,29,13,21,23.60
2015,05,29,13,22,23.70
2015,05,29,13,23,23.70
2015,05,29,13,24,23.80
2015,05,29,13,25,23.80
2015,05,29,13,26,23.80
2015,05,29,13,27,23.80
2015,05,29,13,28,23.90
2015,05,29,13,29,24.00
2015,05,29,13,30,24.00
2015,05,29,13,31,24.10
2015,05,29,13,32,24.10
2015,05,29,13,33,24.20
2015,05,29,13,34,24.20
2015,05,29,13,35,24.20
2015,05,29,13,36,24.20
2015,05,29,13,37,24.30
2015,05,29,13,38,24.30
2015,05,29,13,39,24.30
2015,05,29,13,40,24.40
2015,05,29,13,41,24.40
2015,05,29,13,42,24.40
2015,05,29,13,43,24.30
2015,05,29,13,44,24.30
2015,05,29,13,45,24.30
2015,05,29,13,46,24.30
2015,05,29,13,47,24.30
2015,05,29,13,48,24.30
2015,05,29,13,49,24.30
2015,05,29,13,50,24.30
2015,05,29,13,51,24.30
2015,05,29,13,52,24.30
2015,05,29,13,53,24.40
2015,05,29,13,54,24.40
2015,05,29,13,55,24.50
2015,05,29,13,56,24.50
2015,05,29,13,57,24.50
2015,05,29,13,58,24.60
2015,05,29,13,59,24.60
2015,05,29,14,00,24.60
2015,05,29,14,01,24.70
2015,05,29,14,02,24.70
2015,05,29,14,03,24.70
2015,05,29,14,04,24.70
2015,05,29,14,05,24.70
2015,05,29,14,06,24.70
2015,05,29,14,07,24.70
2015,05,29,14,08,24.70
2015,05,29,14,09,24.60
2015,05,29,14,10,24.60
2015,05,29,14,11,24.50
2015,05,29,14,12,24.50
2015,05,29,14,13,24.60
2015,05,29,14,14,24.60
2015,05,29,14,15,24.60
2015,05,29,14,16,24.60
2015,05,29,14,17,24.50
2015,05,29,14,18,24.50
2015,05,29,14,19,24.30
2015,05,29,14,20,24.30
2015,05,29,14,21,24.20
2015,05,29,14,22,24.20
2015,05,29,14,23,24.10
2015,05,29,14,24,24.10
2015,05,29,14,25,24.10
2015,05,29,14,26,24.00
2015,05,29,14,27,24.00
2015,05,29,14,28,23.90
2015,05,29,14,29,23.90
2015,05,29,14,30,23.90
2015,05,29,14,31,23.90
2015,05,29,14,32,23.80
2015,05,29,14,33,23.90
2015,05,29,14,34,23.90
2015,05,29,14,35,23.90
2015,05,29,14,36,23.90
2015,05,29,14,37,23.90
2015,05,29,14,38,24.00
2015,05,29,14,39,24.00
2015,05,29,14,40,24.10
2015,05,29,14,41,24.10
2015,05,29,14,42,24.10
2015,05,29,14,43,24.10
2015,05,29,14,44,24.20
2015,05,29,14,45,24.20
2015,05,29,14,46,24.20
2015,05,29,14,47,24.30
2015,05,29,14,48,24.30
2015,05,29,14,49,24.30
2015,05,29,14,50,24.30
2015,05,29,14,51,24.40
2015,05,29,14,52,24.40
2015,05,29,14,53,24.40
2015,05,29,14,54,24.40
2015,05,29,14,55,24.50
2015,05,29,14,56,24.60
2015,05,29,14,57,24.70
2015,05,29,14,58,24.70
2015,05,29,14,59,24.70
2015,05,29,15,00,24.70
2015,05,29,15,01,24.70
2015,05,29,15,02,24.80
2015,05,29,15,03,24.80
2015,05,29,15,04,24.80
2015,05,29,15,05,24.90
2015,05,29,15,06,25.00
2015,05,29,15,07,25.10
2015,05,29,15,08,25.10
2015,05,29,15,09,25.10
2015,05,29,15,10,25.10
2015,05,29,15,11,25.10
2015,05,29,15,12,25.00
2015,05,29,15,13,25.00
2015,05,29,15,14,25.10
2015,05,29,15,15,25.10
2015,05,29,15,16,25.10
2015,05,29,15,17,25.10
2015,05,29,15,18,25.10
2015,05,29,15,19,25.10
2015,05,29,15,20,25.20
2015,05,29,15,21,25.30
2015,05,29,15,22,25.30
2015,05,29,15,23,25.40
2015,05,29,15,24,25.50
2015,05,29,15,25,25.50
2015,05,29,15,26,25.60
2015,05,29,15,27,25.70
2015,05,29,15,28,25.80
2015,05,29,15,29,25.80
2015,05,29,15,30,25.90
2015,05,29,15,31,25.90
2015,05,29,15,32,25.90
2015,05,29,15,33,26.00
2015,05,29,15,34,26.00
2015,05,29,15,35,26.10
2015,05,29,15,36,26.10
2015,05,29,15,37,26.10
2015,05,29,15,38,26.20
2015,05,29,15,39,26.30
2015,05,29,15,40,26.30
2015,05,29,15,41,26.30
2015,05,29,15,42,26.30
2015,05,29,15,43,26.30
2015,05,29,15,44,26.30
2015,05,29,15,45,26.30
2015,05,29,15,46,26.40
2015,05,29,15,47,26.40
2015,05,29,15,48,26.50
2015,05,29,15,49,26.50
2015,05,29,15,50,26.40
2015,05,29,15,51,26.30
2015,05,29,15,52,26.20
2015,05,29,15,53,26.10
2015,05,29,15,54,26.10
2015,05,29,15,55,26.10
2015,05,29,15,56,26.10
2015,05,29,15,57,26.00
2015,05,29,15,58,25.90
2015,05,29,15,59,25.90
2015,05,29,16,00,25.90
2015,05,29,16,01,25.90
2015,05,29,16,02,25.80
2015,05,29,16,03,25.90
2015,05,29,16,04,25.90
2015,05,29,16,05,25.80
2015,05,29,16,06,25.80
2015,05,29,16,07,25.80
2015,05,29,16,08,25.80
2015,05,29,16,09,25.80
2015,05,29,16,10,25.80
2015,05,29,16,11,25.80
2015,05,29,16,12,25.90
2015,05,29,16,13,25.90
2015,05,29,16,14,26.00
2015,05,29,16,15,26.00
2015,05,29,16,16,25.90
2015,05,29,16,17,25.90
2015,05,29,16,18,25.90
2015,05,29,16,19,25.90
2015,05,29,16,20,25.80
2015,05,29,16,21,25.80
2015,05,29,16,22,25.80
2015,05,29,16,23,25.80
2015,05,29,16,24,25.90
2015,05,29,16,25,25.90
2015,05,29,16,26,26.00
2015,05,29,16,27,26.00
2015,05,29,16,28,26.10
2015,05,29,16,29,26.20
2015,05,29,16,30,26.20
2015,05,29,16,31,26.20
2015,05,29,16,32,26.10
2015,05,29,16,33,26.00
2015,05,29,16,34,25.90
2015,05,29,16,35,25.80
2015,05,29,16,36,25.60
2015,05,29,16,37,25.60
2015,05,29,16,38,25.60
2015,05,29,16,39,25.60
2015,05,29,16,40,25.50
2015,05,29,16,41,25.60
2015,05,29,16,42,25.60
2015,05,29,16,43,25.70
2015,05,29,16,44,25.70
2015,05,29,16,45,25.80
2015,05,29,16,46,25.90
2015,05,29,16,47,25.90
2015,05,29,16,48,25.80
2015,05,29,16,49,25.80
2015,05,29,16,50,25.70
2015,05,29,16,51,25.60
2015,05,29,16,52,25.40
2015,05,29,16,53,25.40
2015,05,29,16,54,25.40
2015,05,29,16,55,25.40
2015,05,29,16,56,25.50
2015,05,29,16,57,25.50
2015,05,29,16,58,25.40
2015,05,29,16,59,25.40
2015,05,29,17,00,25.50
2015,05,29,17,01,25.50
2015,05,29,17,02,25.50
2015,05,29,17,03,25.40
2015,05,29,17,04,25.40
2015,05,29,17,05,25.30
2015,05,29,17,06,25.30
2015,05,29,17,07,25.30
2015,05,29,17,08,25.30
2015,05,29,17,09,25.30
2015,05,29,17,10,25.20
2015,05,29,17,11,25.20
2015,05,29,17,12,25.10
2015,05,29,17,13,25.10
2015,05,29,17,14,25.00
2015,05,29,17,15,25.00
2015,05,29,17,16,25.00
2015,05,29,17,17,25.00
2015,05,29,17,18,24.90
2015,05,29,17,19,24.90